Weather History for Ephrata, WA

Change the Weather History Date:

Thursday, June 19, 2014

  Actual Average Record
Temperature  
Mean Temperature 68 °F 67 °F  
Max Temperature 85 °F 80 °F 99 °F (1974)
Min Temperature 50 °F 54 °F 42 °F (1986)
Degree Days  
Heating Degree Days 0 2  
Month to date heating degree days 23 47  
Since 1 June heating degree days 23 47  
Since 1 July heating degree days 5758 5956  
Cooling Degree Days 3 4  
Month to date cooling degree days 87 54  
Year to date cooling degree days 131 91  
Since 1 June cooling degree days 87 54  
Growing Degree Days 19 (Base 50)    
Moisture  
Dew Point 39 °F    
Average Humidity 45    
Maximum Humidity 71    
Minimum Humidity 18    
Precipitation  
Precipitation 0.00 in 0.02 in 0.19 in (2010)
Month to date precipitation 0.23 0.43  
Year to date precipitation 3.03 3.89  
Sea Level Pressure  
Sea Level Pressure 29.86 in    
Wind  
Wind Speed 8 mph (West)    
Max Wind Speed 21 mph    
Max Gust Speed 31 mph    
Visibility 10 miles    
Events      
T = Trace of Precipitation, MM = Missing Value Source: NWS Daily Summary

Daily Weather History Graph

Daily Weather History Graph

Search for Another Location

Airport:

Trip Planner

Search our weather history database for the weather conditions in past years. The results will help you decide how hot, cold, wet, or windy it might be!

Date:

Astronomy

Jun. 19, 2014 Rise Set
Actual Time 5:01 AM PDT 8:57 PM PDT
Civil Twilight 4:20 AM PDT 9:38 PM PDT
Nautical Twilight 3:25 AM PDT 10:33 PM PDT
Astronomical Twilight 1:59 AM PDT 12:00 AM PDT
Moon 12:37 AM PDT (6/19) 1:06 PM PDT (6/19)
Length of Visible Light 17h 17m
Length of Day
15h 56m
Waning Gibbous, 50% of the Moon is Illuminated
Jun 19
Waning Gibbous
Jun 27
New
Jul 5
First Quarter
Jul 12
Full
Jul 18
Last Quarter

Hourly Weather History & Observations

Time (PDT) Temp. Dew Point Humidity Pressure Visibility Wind Dir Wind Speed Gust Speed Precip Events Conditions
12:53 AM 64.9 °F 32.0 °F 29% 29.86 in 10.0 mi NW 8.1 mph - N/A   Clear
1:53 AM 64.0 °F 32.0 °F 30% 29.85 in 10.0 mi NNW 12.7 mph 18.4 mph N/A   Clear
3:53 AM 54.0 °F 39.0 °F 57% 29.86 in 10.0 mi Calm Calm - N/A   Clear
4:53 AM 55.0 °F 37.9 °F 53% 29.86 in 10.0 mi SSW 6.9 mph - N/A   Clear
5:53 AM 55.0 °F 41.0 °F 59% 29.88 in 10.0 mi East 5.8 mph - N/A   Clear
6:53 AM 54.0 °F 44.1 °F 69% 29.90 in 10.0 mi North 5.8 mph - N/A   Clear
8:53 AM 61.0 °F 44.1 °F 54% 29.92 in 10.0 mi NNE 4.6 mph - N/A   Clear
9:53 AM 64.9 °F 42.1 °F 43% 29.92 in 10.0 mi Variable 3.5 mph - N/A   Clear
10:53 AM 71.1 °F 39.9 °F 32% 29.90 in 10.0 mi Variable 4.6 mph - N/A   Clear
11:53 AM 75.0 °F 41.0 °F 29% 29.90 in 10.0 mi SSE 5.8 mph - N/A   Clear
12:53 PM 75.9 °F 33.1 °F 21% 29.89 in 10.0 mi Variable 4.6 mph - N/A   Clear
1:53 PM 79.0 °F 37.9 °F 23% 29.87 in 10.0 mi South 11.5 mph - N/A   Clear
2:53 PM 84.0 °F 39.0 °F 20% 29.86 in 10.0 mi South 15.0 mph 21.9 mph N/A   Clear
3:53 PM 84.9 °F 37.9 °F 19% 29.85 in 10.0 mi SSW 17.3 mph 23.0 mph N/A   Clear
4:53 PM 84.9 °F 37.9 °F 19% 29.83 in 10.0 mi West 9.2 mph - N/A   Clear
5:53 PM 84.0 °F 37.0 °F 19% 29.83 in 10.0 mi South 10.4 mph 18.4 mph N/A   Clear
6:53 PM 82.9 °F 36.0 °F 19% 29.83 in 10.0 mi South 12.7 mph - N/A   Clear
7:53 PM 80.1 °F 39.9 °F 24% 29.83 in 10.0 mi SSE 10.4 mph - N/A   Mostly Cloudy
8:53 PM 78.1 °F 39.9 °F 25% 29.84 in 10.0 mi NNW 15.0 mph - N/A   Mostly Cloudy
9:00 PM 77.0 °F 39.0 °F 25% 29.86 in 10.0 mi NNW 13.8 mph - N/A   Mostly Cloudy
9:53 PM 73.9 °F 39.9 °F 29% 29.85 in 10.0 mi NW 15.0 mph - N/A   Clear
10:53 PM 72.0 °F 39.9 °F 31% 29.85 in 10.0 mi NW 10.4 mph - N/A   Clear
11:53 PM 70.0 °F 41.0 °F 35% 29.84 in 10.0 mi NNW 10.4 mph - N/A   Clear